Temp
1 1 2 2 1 2 2 2 2 2 2 2 1 1 1 1 0 -0 -1 -2 -3 -4 -4 -5 -4 -5 -4 -4 -4 -4 -4 -4 -3 -3 -3 -3 -3 -3 -3 -3 -3 -2 -2
1 1 1 1 2 1 1 2 2 2 1 1 0 0 -0 -1 -1 -2 -3 -4 -5 -5 -6 -6 -5 -6 -6 -6 -5 -5 -5 -5 -5 -5 -5 -4 -4 -4 -4 -4 -4 -3 -3
0 1 0 1 1 1 2 1 1 0 -0 -0 -1 -1 -1 -2 -3 -4 -6 -6 -7 -7 -7 -7 -7 -7 -7 -7 -7 -7 -7 -7 -7 -6 -6 -6 -6 -5 -5 -5 -4 -4 -3
1 0 0 0 1 1 1 0 -0 -1 -2 -2 -2 -2 -2 -3 -4 -6 -7 -7 -7 -7 -8 -8 -8 -8 -8 -8 -9 -8 -8 -8 -8 -7 -7 -7 -7 -7 -6 -5 -4 -4 -4
0 -0 0 1 1 0 -0 -1 -1 -2 -3 -3 -3 -3 -3 -4 -6 -7 -8 -8 -8 -8 -8 -8 -9 -9 -11 -10 -10 -9 -9 -9 -9 -9 -9 -8 -7 -7 -7 -7 -7 -7 -6
0 0 0 0 0 -0 -1 -2 -2 -3 -4 -4 -4 -4 -5 -5 -6 -6 -9 -9 -9 -9 -9 -9 -10 -10 -10 -11 -11 -11 -10 -10 -10 -10 -10 -9 -8 -8 -8 -8 -8 -8 -6
2 2 1 1 0 -1 -2 -2 -3 -4 -4 -5 -5 -6 -6 -6 -6 -7 -10 -10 -10 -10 -10 -10 -10 -10 -11 -11 -11 -11 -11 -11 -10 -10 -10 -9 -9 -9 -8 -8 -8 -8 -7
2 1 1 0 -0 -2 -2 -3 -4 -4 -5 -6 -6 -6 -8 -7 -7 -8 -10 -10 -10 -11 -11 -11 -11 -11 -11 -11 -11 -11 -10 -10 -10 -10 -10 -10 -10 -9 -9 -9 -9 -9 -9
2 2 1 0 -1 -2 -3 -4 -4 -5 -5 -6 -7 -7 -8 -7 -8 -9 -11 -11 -11 -11 -11 -11 -11 -11 -11 -10 -10 -10 -10 -10 -9 -9 -9 -8 -8 -8 -8 -8 -8 -8 -7
2 2 1 0 -1 -2 -4 -5 -5 -5 -6 -7 -8 -8 -8 -8 -9 -10 -12 -11 -11 -11 -11 -11 -11 -10 -10 -9 -9 -9 -9 -9 -9 -9 -9 -9 -9 -9 -9 -8 -8 -8 -8
3 2 1 -1 -2 -3 -5 -5 -6 -6 -7 -8 -9 -9 -9 -9 -10 -11 -13 -11 -11 -10 -10 -10 -10 -10 -10 -9 -9 -9 -10 -9 -10 -10 -10 -10 -10 -10 -9 -9 -9 -9 -9
2 1 -1 -2 -4 -5 -6 -6 -7 -8 -9 -10 -10 -10 -11 -11 -11 -12 -13 -12 -11 -11 -11 -10 -10 -10 -11 -11 -11 -12 -11 -11 -13 -13 -12 -12 -11 -11 -10 -10 -10 -10 -9
0 -1 -2 -4 -6 -6 -7 -7 -9 -9 -11 -12 -12 -12 -12 -13 -13 -13 -12 -12 -11 -11 -11 -10 -11 -12 -13 -14 -14 -14 -14 -14 -14 -14 -13 -13 -12 -12 -12 -12 -12 -11 -11
-1 -3 -5 -6 -7 -8 -8 -9 -9 -10 -12 -13 -13 -13 -13 -13 -13 -13 -13 -12 -12 -11 -11 -13 -13 -14 -15 -15 -16 -15 -16 -16 -16 -15 -14 -14 -14 -14 -13 -13 -12 -12 -11
-4 -5 -6 -7 -8 -9 -9 -10 -11 -10 -11 -12 -13 -13 -13 -12 -13 -12 -11 -11 -11 -11 -12 -14 -15 -16 -16 -16 -16 -16 -16 -16 -16 -15 -15 -16 -15 -15 -14 -13 -12 -11 -11
-6 -8 -9 -10 -10 -11 -12 -12 -11 -13 -14 -13 -12 -12 -12 -12 -11 -12 -11 -11 -11 -13 -14 -16 -16 -17 -17 -17 -16 -16 -16 -16 -16 -16 -16 -16 -15 -15 -14 -14 -13 -11 -11
-7 -9 -10 -10 -11 -12 -13 -14 -13 -14 -14 -15 -14 -14 -13 -13 -13 -13 -12 -12 -14 -15 -16 -17 -18 -18 -18 -17 -17 -17 -17 -17 -18 -17 -17 -16 -16 -15 -15 -14 -13 -12 -11
-9 -9 -10 -11 -12 -14 -14 -15 -15 -15 -15 -15 -15 -15 -16 -15 -14 -14 -13 -13 -16 -17 -17 -19 -19 -19 -18 -18 -18 -18 -18 -18 -17 -17 -17 -17 -16 -15 -15 -14 -14 -13 -12
-11 -12 -12 -13 -14 -15 -16 -17 -17 -17 -18 -18 -17 -16 -17 -17 -17 -16 -16 -17 -19 -19 -19 -20 -20 -20 -20 -19 -19 -19 -19 -19 -19 -18 -17 -17 -16 -15 -14 -14 -14 -14 -13
-13 -14 -14 -15 -17 -18 -18 -18 -18 -18 -19 -19 -19 -18 -18 -19 -18 -18 -18 -18 -19 -19 -20 -20 -20 -21 -21 -21 -20 -20 -19 -19 -19 -18 -17 -17 -16 -15 -15 -15 -15 -14 -13
-15 -16 -16 -18 -19 -19 -20 -20 -19 -19 -19 -19 -19 -19 -19 -19 -17 -18 -19 -19 -19 -19 -19 -20 -20 -21 -20 -21 -21 -21 -20 -20 -19 -19 -18 -17 -17 -16 -15 -15 -15 -14 -13
-17 -17 -18 -19 -20 -20 -20 -21 -21 -20 -20 -20 -20 -20 -19 -19 -19 -19 -20 -20 -19 -19 -19 -20 -20 -20 -20 -20 -21 -21 -21 -20 -19 -19 -19 -18 -17 -16 -16 -15 -15 -14 -14
-18 -19 -20 -20 -20 -21 -21 -21 -22 -22 -21 -21 -21 -21 -21 -21 -21 -21 -21 -20 -20 -20 -20 -20 -20 -19 -20 -20 -20 -21 -20 -19 -18 -18 -18 -18 -17 -16 -16 -16 -15 -15 -14
-20 -20 -20 -21 -21 -21 -22 -22 -21 -22 -22 -22 -22 -22 -22 -21 -21 -21 -20 -20 -20 -20 -20 -20 -20 -20 -19 -19 -19 -19 -18 -18 -17 -17 -16 -17 -16 -17 -17 -16 -16 -16 -15
-20 -20 -20 -21 -21 -22 -22 -22 -22 -22 -22 -22 -22 -22 -22 -22 -21 -20 -20 -20 -20 -20 -20 -20 -20 -19 -19 -19 -18 -18 -18 -17 -16 -15 -16 -16 -16 -16 -16 -17 -17 -16 -16
-20 -20 -20 -21 -22 -22 -22 -22 -22 -22 -22 -22 -22 -22 -22 -22 -21 -21 -21 -20 -20 -20 -20 -20 -19 -19 -19 -19 -18 -18 -17 -17 -16 -16 -15 -15 -15 -16 -16 -16 -16 -16 -16
Height
863 864 865 869 872 873 874 876 877 878 880 879 881 880 878 877 876 876 874 872 871 869 868 865 863 862 860 858 856 853 851 848 840 827 827 822 814 809 804 802 798 794 789
860 862 863 865 869 871 874 875 875 876 878 879 878 877 876 876 874 873 872 870 868 866 864 862 860 858 856 854 852 849 846 843 838 826 819 817 813 808 801 795 791 788 783
859 860 862 865 865 869 873 873 874 874 876 875 875 875 874 873 871 870 869 867 865 863 861 859 856 855 852 850 848 844 840 836 833 826 812 813 808 804 798 793 786 780 776
854 856 858 861 862 864 868 871 872 872 873 873 870 872 871 869 868 867 866 864 862 860 857 855 852 850 848 846 843 839 835 831 827 822 814 807 805 800 795 789 780 777 771
850 852 854 857 859 861 863 866 868 870 869 869 868 868 867 865 864 863 861 859 857 854 852 850 847 845 842 840 838 834 831 827 823 818 812 805 799 795 792 787 781 774 766
844 847 850 852 855 857 862 865 864 863 864 865 864 863 862 860 859 857 856 854 852 849 847 844 842 840 837 835 832 829 827 823 818 815 809 802 795 792 787 783 779 773 761
837 842 845 849 851 854 857 859 863 860 860 860 859 858 857 855 853 852 850 848 847 844 842 839 836 834 831 828 825 822 819 816 813 809 802 798 790 787 782 777 774 770 763
832 836 840 843 845 848 852 853 856 856 855 855 855 854 852 850 847 846 845 843 841 838 836 833 830 827 826 823 818 814 810 806 803 799 794 787 783 779 775 769 764 759 755
827 829 832 836 839 842 845 848 850 851 850 850 849 848 847 844 842 840 839 838 835 832 830 828 825 822 819 817 811 805 799 795 791 787 782 777 773 769 766 761 754 752 742
821 823 826 828 831 835 839 842 844 844 844 844 843 842 840 838 837 836 834 833 830 827 825 822 820 817 813 810 805 798 789 784 780 776 771 767 764 759 757 755 750 744 739
816 817 820 823 824 829 832 836 838 838 838 838 837 836 834 833 831 830 829 828 825 822 819 816 813 810 806 802 797 791 785 780 774 770 764 760 755 751 748 745 742 739 733
810 811 813 816 819 823 826 830 831 832 832 832 831 830 828 827 826 824 824 822 820 818 814 811 807 804 800 795 790 785 780 775 769 764 759 754 749 745 741 738 734 730 726
805 806 809 811 814 817 821 823 824 825 825 824 824 823 822 821 820 818 817 816 814 812 808 805 801 798 794 788 783 779 774 770 766 760 755 750 746 741 736 730 726 722 717
798 801 804 806 809 812 814 815 816 817 816 817 817 816 814 813 813 812 811 809 807 806 802 798 796 793 789 785 779 775 772 768 764 758 752 746 741 735 729 725 720 715 710
792 796 798 801 803 806 808 809 809 809 809 809 808 808 808 807 806 806 805 804 803 800 796 793 791 789 785 781 777 773 769 765 760 755 749 743 736 730 723 719 714 709 703
786 789 792 795 798 800 802 803 804 805 805 805 805 803 802 801 800 799 799 799 797 793 792 791 789 787 783 779 775 770 766 762 757 751 746 740 733 726 720 713 709 703 696
782 785 788 791 793 794 796 797 798 798 798 798 798 797 796 796 795 793 793 793 789 788 788 787 786 783 780 776 773 769 762 758 753 747 742 735 729 723 716 709 703 697 689
779 782 784 786 788 790 791 791 790 791 791 791 791 792 789 789 790 789 788 787 785 784 784 783 782 779 776 772 769 765 759 754 748 743 737 732 726 719 712 705 698 692 685
777 779 781 783 785 786 786 788 787 785 784 784 784 785 786 783 783 784 782 781 781 780 779 779 777 774 771 768 765 761 756 750 745 739 733 728 721 715 707 701 694 687 680
776 777 779 780 781 781 782 783 783 782 781 779 778 778 780 780 777 778 777 777 776 775 774 772 771 769 766 763 759 755 750 745 741 736 729 724 717 710 703 696 689 681 673
774 775 776 776 777 777 777 777 778 778 777 775 773 772 773 775 774 773 773 772 770 769 768 766 764 762 759 756 753 750 745 740 736 731 725 719 712 705 698 691 684 676 668
771 772 772 772 772 772 772 772 772 771 769 768 767 766 766 768 768 767 766 766 765 764 762 760 758 755 753 750 747 744 740 735 730 726 720 714 707 701 694 686 679 671 664
768 768 768 769 769 768 767 768 767 766 764 763 762 761 760 760 760 760 760 759 759 757 756 753 751 749 747 744 741 738 734 729 725 721 715 709 704 697 690 683 676 668 662
765 765 765 765 765 764 764 764 763 762 759 758 757 756 755 755 754 754 754 753 752 750 748 746 744 742 740 737 735 732 728 724 720 716 712 706 701 694 688 681 674 667 661
763 762 761 761 761 761 761 760 758 757 755 754 752 751 750 749 748 747 747 746 745 743 742 740 737 735 733 731 728 725 722 718 715 712 708 704 698 692 686 679 673 666 661
762 760 759 759 758 758 757 756 754 752 751 749 747 746 745 744 743 741 740 739 738 736 735 732 730 729 726 724 722 719 716 712 709 706 704 700 695 689 684 679 673 667 662
Wind_Speed
18 17 18 16 15 13 12 10 8 6 4 2 3 4 6 7 9 10 10 10 12 12 11 12 13 13 14 16 16 17 19 19 22 32 28 29 36 35 33 29 29 30 31
18 19 18 17 16 13 11 10 8 6 3 1 2 4 6 8 10 10 9 11 11 12 13 13 15 15 16 16 17 20 21 22 24 29 32 28 28 30 35 37 32 29 32
20 20 18 18 16 14 12 10 8 7 5 3 3 5 6 8 9 9 9 11 11 12 13 14 15 16 17 17 19 22 22 24 24 27 34 29 29 28 30 31 34 34 31
23 21 20 19 19 17 15 12 11 9 7 5 4 6 7 9 9 8 10 10 12 12 13 14 16 16 17 19 21 22 23 24 25 27 29 30 29 28 27 28 29 26 29
24 22 22 22 20 18 17 16 13 11 8 7 7 9 9 9 8 10 10 12 13 15 15 15 16 17 19 20 21 22 24 25 25 26 27 28 28 26 25 26 29 31 35
23 25 23 23 24 22 19 18 15 13 11 10 10 10 10 9 11 10 11 13 14 15 16 16 17 17 17 19 21 22 23 26 26 25 26 27 29 29 28 26 26 26 20
32 31 29 27 26 24 23 21 17 15 13 12 12 12 12 11 12 11 12 13 15 15 16 17 18 17 18 20 21 23 24 24 25 28 30 30 32 29 29 29 28 28 29
31 31 31 29 29 27 25 23 19 17 15 14 14 14 13 13 12 13 13 14 14 15 16 17 18 20 20 22 25 27 28 28 26 28 31 35 35 35 34 36 35 35 33
27 31 32 31 31 30 28 23 20 18 16 15 15 15 15 14 13 13 12 13 14 15 16 17 19 22 22 25 30 30 31 32 33 34 35 36 38 38 37 38 33 29 27
26 28 29 29 31 32 27 23 21 19 17 15 16 16 16 15 13 12 11 12 14 16 17 18 19 22 26 28 31 32 35 33 28 30 27 24 25 30 33 35 36 32 30
20 20 22 24 27 27 25 22 20 18 17 16 17 17 16 14 12 11 10 12 14 17 20 22 22 24 28 30 31 32 32 39 37 35 30 29 29 28 28 28 28 31 31
18 19 21 22 23 24 22 20 19 17 17 16 16 16 14 12 11 10 11 12 14 18 21 22 24 23 26 34 34 31 31 31 27 25 24 24 24 25 25 25 26 28 31
20 20 21 21 22 21 21 20 18 17 16 14 13 12 11 11 11 11 11 11 14 18 20 23 19 27 27 25 22 25 23 19 20 21 22 24 25 26 28 28 27 29 31
22 22 21 22 22 22 21 20 20 19 16 14 12 12 10 10 10 9 10 13 13 17 17 15 22 23 18 18 19 18 18 17 19 21 23 25 27 26 25 25 25 27 27
23 22 22 22 22 20 21 19 19 19 18 16 15 13 12 12 10 10 14 17 18 18 18 21 20 16 17 16 17 17 18 18 19 19 21 24 25 25 25 25 25 24 25
24 22 20 19 18 18 16 16 19 18 15 16 17 16 15 17 16 14 16 17 18 12 13 13 14 14 15 16 18 20 19 19 19 21 22 22 24 25 26 27 26 24 24
23 17 17 19 16 16 16 14 13 12 15 14 15 15 14 16 15 15 15 16 12 13 13 11 12 13 15 15 17 19 21 22 23 21 23 24 25 26 27 26 26 25 25
18 17 16 15 15 14 15 14 13 11 11 11 14 14 12 13 14 13 14 13 14 12 11 10 12 12 14 15 17 18 21 23 23 24 24 24 25 26 27 26 26 25 25
14 13 14 14 14 14 13 12 12 11 11 11 13 14 13 10 10 12 11 10 11 11 10 11 12 13 14 15 17 18 20 23 25 26 25 25 26 25 27 27 27 28 28
11 12 12 12 12 12 11 11 12 12 12 11 10 12 12 11 8 8 11 12 13 14 13 14 15 15 15 16 17 18 19 22 23 24 25 25 27 25 27 27 27 26 26
10 11 12 11 11 10 10 11 12 12 12 13 13 13 12 14 13 11 11 13 14 16 17 17 17 18 17 17 17 17 19 22 25 25 26 26 27 27 27 25 26 27 26
10 10 11 11 11 10 11 12 12 14 14 15 14 13 12 13 14 13 13 15 16 17 18 19 19 19 19 18 18 18 19 24 27 26 27 28 27 27 26 25 25 25 25
5 6 6 8 9 11 12 13 13 14 14 14 13 13 12 12 13 14 16 18 18 19 18 18 19 20 19 19 19 19 22 25 26 28 29 30 27 26 25 24 23 23 22
4 5 7 8 9 9 10 12 13 14 15 13 13 13 14 15 16 17 19 20 19 19 19 19 19 19 19 19 20 21 22 22 24 26 24 26 25 25 23 22 21 22 21
3 5 6 8 9 10 12 13 13 13 13 13 13 13 13 15 17 19 20 20 20 20 20 19 20 20 20 20 20 20 20 19 21 22 20 20 21 22 21 20 20 19 18
6 7 8 10 11 10 11 13 14 14 14 13 13 13 13 15 18 20 20 20 20 21 22 21 21 21 20 21 19 19 19 17 18 20 20 20 19 19 19 18 19 15 16
Wind_Direction
171 167 160 159 157 149 146 138 124 115 109 77 22 359 353 346 342 337 332 330 330 328 328 325 322 320 316 311 304 297 292 287 285 289 289 292 298 302 303 301 299 295 293
180 177 175 170 168 164 162 158 157 162 171 209 333 338 337 335 332 326 322 323 322 320 318 318 315 315 312 307 303 298 294 291 288 290 293 296 294 297 300 303 301 295 291
189 186 184 185 181 182 185 183 184 191 208 240 289 310 319 323 323 316 313 310 308 307 307 307 307 308 305 303 301 298 296 294 292 291 295 299 297 297 296 297 300 299 293
196 194 194 197 196 197 199 201 205 215 227 248 277 299 307 313 312 300 304 300 299 298 300 300 301 301 300 301 300 297 297 296 295 293 293 299 300 300 296 296 300 302 304
200 201 205 207 206 206 208 212 219 229 235 251 268 284 293 304 292 296 299 301 301 302 301 301 300 295 295 294 294 296 296 295 295 295 294 295 298 305 301 300 295 299 299
204 210 210 211 214 215 218 222 226 232 244 256 266 276 283 292 297 304 303 302 299 299 300 300 299 299 298 296 293 291 289 291 289 292 294 290 294 297 298 296 296 296 298
215 219 220 221 220 220 221 225 232 238 248 259 267 274 280 291 303 305 299 299 296 294 297 300 302 301 302 302 299 296 292 287 285 285 285 285 288 289 292 291 286 284 287
221 225 228 228 227 224 225 228 233 241 252 260 266 273 277 293 303 303 300 299 292 293 295 298 299 303 305 305 302 292 289 285 281 280 275 274 275 278 275 274 277 277 276
224 229 232 231 229 226 228 229 236 244 253 259 268 272 281 295 303 305 300 297 293 294 297 299 298 301 303 304 300 297 292 285 280 278 278 280 280 281 281 283 282 284 283
225 233 237 236 234 231 230 231 238 246 255 262 268 275 286 295 301 302 295 294 294 300 303 303 301 300 303 304 299 295 288 290 297 297 293 294 289 285 282 276 276 276 279
233 236 237 235 232 227 225 229 238 247 256 265 274 280 285 290 301 309 293 293 296 302 302 304 305 306 306 305 304 308 305 305 305 300 296 295 293 292 287 282 273 266 271
228 226 226 223 218 218 221 228 236 247 258 267 274 282 285 287 298 308 295 292 295 298 300 302 304 309 310 308 305 304 306 305 305 300 297 295 296 296 296 295 289 282 273
221 221 219 214 214 218 221 228 236 245 252 259 263 268 274 282 289 302 303 300 303 301 299 300 311 315 312 312 311 316 318 313 310 306 303 298 297 297 297 296 291 285 281
222 217 213 213 214 220 225 231 236 239 244 249 253 262 270 278 285 294 299 307 303 304 301 306 316 315 315 314 321 326 323 318 314 307 303 302 302 302 297 296 291 289 285
219 214 213 214 217 224 231 236 241 248 248 248 253 263 274 279 282 294 302 302 301 303 312 313 317 320 319 321 323 322 322 322 319 315 309 306 303 303 300 302 294 287 279
213 210 211 212 219 225 234 247 250 251 255 254 260 262 270 276 282 285 291 293 300 316 309 308 310 310 311 318 320 318 320 321 321 317 312 308 304 304 304 303 301 293 285
214 213 214 215 221 225 231 237 249 256 249 252 260 262 261 269 275 281 283 290 293 310 309 301 298 303 306 312 312 314 316 318 318 317 313 308 306 305 307 304 302 300 297
217 222 220 224 228 232 235 238 240 242 253 260 263 262 265 272 274 271 279 282 294 296 294 290 293 297 304 307 307 308 311 314 318 315 311 308 305 304 307 304 302 300 299
215 224 230 236 242 243 246 251 250 247 248 256 270 277 275 259 269 268 263 265 276 285 286 285 289 293 297 300 301 303 305 308 308 308 308 309 308 304 305 302 300 298 296
234 243 247 251 252 253 253 254 258 257 256 254 253 261 272 284 269 256 257 274 274 280 284 286 290 292 294 295 298 300 305 307 305 307 308 307 310 308 308 303 301 300 300
248 254 255 258 259 258 257 257 259 259 260 261 261 260 259 270 275 260 266 272 274 280 285 289 291 293 297 299 298 297 300 303 304 305 308 307 310 309 310 306 303 303 302
258 262 266 268 270 266 264 265 261 258 256 257 261 263 263 259 260 264 268 272 276 281 285 288 290 293 297 299 298 296 299 304 313 312 310 311 310 313 312 311 310 309 309
262 271 279 281 280 280 280 274 268 266 265 264 266 267 266 262 262 268 272 277 281 285 287 288 289 294 299 302 302 299 300 309 314 317 318 315 308 314 316 314 314 315 316
273 284 288 290 290 287 284 281 278 274 269 266 264 266 269 269 271 274 278 281 284 287 288 289 291 295 300 302 307 309 309 311 313 319 323 314 308 318 319 319 320 322 322
311 308 303 298 295 288 285 284 281 278 274 270 268 268 268 270 273 277 281 283 285 287 289 290 293 297 299 301 305 309 310 307 311 323 321 319 326 334 332 329 331 332 335
304 301 296 290 285 280 279 283 283 280 276 273 269 267 267 271 277 280 283 285 287 289 290 292 295 296 298 297 301 306 308 306 307 325 312 326 331 339 344 345 349 347 349